STARLINK-1922, 46753

Orbit data source: Space-Track

STARLINK-1922, 46753 is a payload satellite owned by SpaceX/Seattle (US) in LEO that was launched on Sat, 24 Oct 2020 UTC via an FALCON 9 launch vehicle from the Air Force Eastern Test Range (AFETR). Payload-class satellites include a variety of spacecraft equipped with specific instruments for various scientific and technological missions. These include communications satellites like Starlink; space stations such as the ISS; scientific satellites like the Hubble; Earth observation satellites from companies like Planet Labs, Umbra, and HawkEye 360; GPS; miniature CubeSats for education and research; and military/defense satellites.

Loading next visibility...
Identifier
46753, 2020-074Q
Orbit
LEO
Country
Flag of USUS
Related business
Manufacturer
SpaceX/Seattle
Mission
Operational Commercial Communications
Bus & Motor
STARLINK, Unknown motor
Mass
260 kg wet, ~248 kg dry
Launch date (UTC)
2020-10-24 (5 years ago)
Launch vehicle
FALCON 9
Launch site
Air Force Eastern Test Range (AFETR)
Object type
Payload
Rocket body
Debris
Shape & HBR
Box + 1 Pan, 10.1 m
Radar Cross Section
13.562 m², Large (>1 m²)

Expand to show TLE details & history
Last TLE update: 10 hours ago

TLE from 10 hours ago
0 STARLINK-1922
1 46753U 20074Q   25286.90550132  .00000711  00000-0  66619-4 0  9997
2 46753  53.0549 260.5602 0001443  98.4022 261.7130 15.06408343274558
Epoch: 2025-10-13T21:43Z
TLE epoch observation values (Epoch: 2025-10-13T21:43:55.314Z)
Latitude
-0.00005°
Longitude
-88.12188°
Altitude
548.209 km
Speed
7.589 km/s
True Right ascension
17h 22m 14s
True Declination
0° 00' 00"
Sunlit
Object was in daylight at epoch
Visualization orbit readout
Latitude
Unknown
Longitude
Unknown
Altitude
Unknown
Speed
Unknown
Apparent Right ascension
Unknown
Apparent Declination
Unknown
Sunlit
N/A
Visualization observer readout
Local Sidereal Time
02:42:09
Azimuth
Unknown
Elevation
Unknown
Doppler factor
Unknown
Orbital elements
Apogee altitude
548.456 km
Perigee altitude
546.457 km
Semi-major axis
6,925.594 km
Eccentricity
0.00014
Inclination
53.0549°
RAAN
260.5602°
Arg. of periapsis
98.4022°
True anomaly
261.69664°
Mean anomaly
261.713°
Eccentric anomaly
261.70482°
Mean motion
3.7658 °/min
Orbital period
95.6 mins
BSTAR
0.000066619
Loading maneuver chart data...
Computing Atmospheric mass density...

Documentation

Showing up to 5 results
|